Time,TemperatureF,DewpointF,PressureIn,WindDirection,WindDirectionDegrees,WindSpeedMPH,WindSpeedGustMPH,Humidity,HourlyPrecipIn,Conditions,Clouds,dailyrainin,SoftwareType,DateUTC
2013-03-10 00:04:00,42.9,25.1,30.20,East,82,0.0,0.0,49,0.00,,,0.00,LWC V2.00 B2112,2013-03-10 05:04:00,
2013-03-10 00:09:00,42.6,25.3,30.20,East,82,0.0,0.0,50,0.00,,,0.00,LWC V2.00 B2112,2013-03-10 05:09:00,
2013-03-10 00:14:00,42.5,25.2,30.21,East,82,0.0,0.0,50,0.00,,,0.00,LWC V2.00 B2112,2013-03-10 05:14:00,
2013-03-10 00:19:00,42.3,25.0,30.21,East,82,0.0,0.0,50,0.00,,,0.00,LWC V2.00 B2112,2013-03-10 05:19:00,
2013-03-10 00:24:00,42.3,25.0,30.21,East,82,0.0,0.0,50,0.00,,,0.00,LWC V2.00 B2112,2013-03-10 05:24:00,
2013-03-10 00:29:00,42.2,24.9,30.21,East,82,0.0,0.0,50,0.00,,,0.00,LWC V2.00 B2112,2013-03-10 05:29:00,
2013-03-10 00:34:00,42.2,24.9,30.21,East,82,0.0,0.0,50,0.00,,,0.00,LWC V2.00 B2112,2013-03-10 05:34:00,
2013-03-10 00:39:00,42.2,24.9,30.21,East,82,0.0,0.0,50,0.00,,,0.00,LWC V2.00 B2112,2013-03-10 05:39:00,
2013-03-10 00:44:00,42.2,25.4,30.21,East,82,0.0,0.0,51,0.00,,,0.00,LWC V2.00 B2112,2013-03-10 05:44:00,
2013-03-10 00:49:00,42.1,25.8,30.21,East,82,0.0,0.0,52,0.00,,,0.00,LWC V2.00 B2112,2013-03-10 05:49:00,
2013-03-10 00:54:00,41.9,25.6,30.21,East,82,0.0,0.0,52,0.00,,,0.00,LWC V2.00 B2112,2013-03-10 05:54:00,
2013-03-10 00:59:00,41.8,25.9,30.21,East,82,0.0,0.0,53,0.00,,,0.00,LWC V2.00 B2112,2013-03-10 05:59:00,
2013-03-10 01:04:00,41.8,25.9,30.21,East,82,0.0,0.0,53,0.00,,,0.00,LWC V2.00 B2112,2013-03-10 06:04:00,
2013-03-10 01:09:00,41.8,25.9,30.21,East,82,0.0,0.0,53,0.00,,,0.00,LWC V2.00 B2112,2013-03-10 06:09:00,
2013-03-10 01:14:00,41.6,25.8,30.21,East,82,0.0,0.0,53,0.00,,,0.00,LWC V2.00 B2112,2013-03-10 06:14:00,
2013-03-10 01:19:00,41.5,25.7,30.21,East,82,0.0,0.0,53,0.00,,,0.00,LWC V2.00 B2112,2013-03-10 06:19:00,
2013-03-10 01:24:00,41.3,25.9,30.21,East,82,0.0,0.0,54,0.00,,,0.00,LWC V2.00 B2112,2013-03-10 06:24:00,
2013-03-10 01:29:00,41.1,26.2,30.20,East,82,0.0,0.0,55,0.00,,,0.00,LWC V2.00 B2112,2013-03-10 06:29:00,
2013-03-10 01:34:00,40.9,26.4,30.20,East,82,0.0,0.0,56,0.00,,,0.00,LWC V2.00 B2112,2013-03-10 06:34:00,
2013-03-10 01:39:00,40.8,26.3,30.20,East,82,0.0,0.0,56,0.00,,,0.00,LWC V2.00 B2112,2013-03-10 06:39:00,
2013-03-10 01:44:00,40.9,26.4,30.20,East,82,0.0,0.0,56,0.00,,,0.00,LWC V2.00 B2112,2013-03-10 06:44:00,
2013-03-10 01:49:00,40.9,26.9,30.20,East,82,0.0,0.0,57,0.00,,,0.00,LWC V2.00 B2112,2013-03-10 06:49:00,
2013-03-10 01:54:00,40.9,26.4,30.20,East,82,0.0,0.0,56,0.00,,,0.00,LWC V2.00 B2112,2013-03-10 06:54:00,
2013-03-10 01:59:00,40.9,26.4,30.20,East,82,0.0,0.0,56,0.00,,,0.00,LWC V2.00 B2112,2013-03-10 06:59:00,
2013-03-10 03:04:00,41.1,26.6,30.20,East,82,0.0,0.0,56,0.00,,,0.00,LWC V2.00 B2112,2013-03-10 07:04:00,
2013-03-10 03:09:00,41.3,26.4,30.20,East,82,0.0,0.0,55,0.00,,,0.00,LWC V2.00 B2112,2013-03-10 07:09:00,
2013-03-10 03:14:00,41.3,26.4,30.19,East,82,0.0,0.0,55,0.00,,,0.00,LWC V2.00 B2112,2013-03-10 07:14:00,
2013-03-10 03:19:00,41.5,26.6,30.19,East,82,0.0,0.0,55,0.00,,,0.00,LWC V2.00 B2112,2013-03-10 07:19:00,
2013-03-10 03:24:00,41.5,26.1,30.19,East,82,0.0,0.0,54,0.00,,,0.00,LWC V2.00 B2112,2013-03-10 07:24:00,
2013-03-10 03:29:00,41.5,26.1,30.18,East,82,0.0,0.0,54,0.00,,,0.00,LWC V2.00 B2112,2013-03-10 07:29:00,
2013-03-10 03:34:00,41.5,25.7,30.18,East,82,0.0,0.0,53,0.00,,,0.00,LWC V2.00 B2112,2013-03-10 07:34:00,
2013-03-10 03:39:00,41.3,25.5,30.18,East,82,0.0,0.0,53,0.00,,,0.00,LWC V2.00 B2112,2013-03-10 07:39:00,
2013-03-10 03:44:00,41.3,25.5,30.18,East,82,0.0,0.0,53,0.00,,,0.00,LWC V2.00 B2112,2013-03-10 07:44:00,
2013-03-10 03:49:00,41.2,25.8,30.18,East,82,0.0,0.0,54,0.00,,,0.00,LWC V2.00 B2112,2013-03-10 07:49:00,
2013-03-10 03:54:00,40.9,25.6,30.18,East,82,0.0,0.0,54,0.00,,,0.00,LWC V2.00 B2112,2013-03-10 07:54:00,
2013-03-10 03:59:00,40.8,25.5,30.18,East,82,0.0,0.0,54,0.00,,,0.00,LWC V2.00 B2112,2013-03-10 07:59:00,
2013-03-10 04:04:00,40.6,25.3,30.18,East,82,0.0,0.0,54,0.00,,,0.00,LWC V2.00 B2112,2013-03-10 08:04:00,
2013-03-10 04:09:00,40.5,25.2,30.18,East,82,0.0,0.0,54,0.00,,,0.00,LWC V2.00 B2112,2013-03-10 08:09:00,
2013-03-10 04:14:00,40.3,25.4,30.17,East,82,0.0,0.0,55,0.00,,,0.00,LWC V2.00 B2112,2013-03-10 08:14:00,
2013-03-10 04:19:00,40.1,24.8,30.17,East,82,0.0,0.0,54,0.00,,,0.00,LWC V2.00 B2112,2013-03-10 08:19:00,
2013-03-10 04:24:00,40.1,24.8,30.17,East,82,0.0,0.0,54,0.00,,,0.00,LWC V2.00 B2112,2013-03-10 08:24:00,
2013-03-10 04:29:00,40.1,24.8,30.17,East,82,0.0,0.0,54,0.00,,,0.00,LWC V2.00 B2112,2013-03-10 08:29:00,
2013-03-10 04:34:00,40.3,25.0,30.17,East,82,0.0,0.0,54,0.00,,,0.00,LWC V2.00 B2112,2013-03-10 08:34:00,
2013-03-10 04:39:00,40.3,24.5,30.17,East,82,0.0,0.0,53,0.00,,,0.00,LWC V2.00 B2112,2013-03-10 08:39:00,
2013-03-10 04:44:00,40.3,25.0,30.17,East,82,0.0,0.0,54,0.00,,,0.00,LWC V2.00 B2112,2013-03-10 08:44:00,
2013-03-10 04:49:00,40.2,24.9,30.17,East,82,0.0,0.0,54,0.00,,,0.00,LWC V2.00 B2112,2013-03-10 08:49:00,
2013-03-10 04:54:00,40.1,24.4,30.17,East,82,0.0,0.0,53,0.00,,,0.00,LWC V2.00 B2112,2013-03-10 08:54:00,
2013-03-10 04:59:00,40.1,24.4,30.17,East,82,0.0,0.0,53,0.00,,,0.00,LWC V2.00 B2112,2013-03-10 08:59:00,
2013-03-10 05:04:00,40.2,24.5,30.17,East,82,0.0,0.0,53,0.00,,,0.00,LWC V2.00 B2112,2013-03-10 09:04:00,
2013-03-10 05:09:00,40.3,24.5,30.17,East,82,0.0,0.0,53,0.00,,,0.00,LWC V2.00 B2112,2013-03-10 09:09:00,
2013-03-10 05:14:00,40.2,24.5,30.17,East,82,0.0,0.0,53,0.00,,,0.00,LWC V2.00 B2112,2013-03-10 09:14:00,
2013-03-10 05:19:00,40.2,24.5,30.17,East,82,0.0,0.0,53,0.00,,,0.00,LWC V2.00 B2112,2013-03-10 09:19:00,
2013-03-10 05:24:00,39.9,24.6,30.17,East,82,0.0,0.0,54,0.00,,,0.00,LWC V2.00 B2112,2013-03-10 09:24:00,
2013-03-10 05:29:00,39.6,24.8,30.17,East,82,0.0,0.0,55,0.00,,,0.00,LWC V2.00 B2112,2013-03-10 09:29:00,
2013-03-10 05:34:00,39.3,24.5,30.17,East,82,0.0,0.0,55,0.00,,,0.00,LWC V2.00 B2112,2013-03-10 09:34:00,
2013-03-10 05:39:00,39.2,24.8,30.17,East,82,0.0,0.0,56,0.00,,,0.00,LWC V2.00 B2112,2013-03-10 09:39:00,
2013-03-10 05:44:00,39.1,25.2,30.18,East,82,0.0,0.0,57,0.00,,,0.00,LWC V2.00 B2112,2013-03-10 09:44:00,
2013-03-10 05:49:00,38.9,25.0,30.18,East,82,0.0,0.0,57,0.00,,,0.00,LWC V2.00 B2112,2013-03-10 09:49:00,
2013-03-10 05:54:00,38.9,25.4,30.18,East,82,0.0,0.0,58,0.00,,,0.00,LWC V2.00 B2112,2013-03-10 09:54:00,
2013-03-10 05:59:00,38.8,25.7,30.17,East,82,0.0,0.0,59,0.00,,,0.00,LWC V2.00 B2112,2013-03-10 09:59:00,
2013-03-10 06:04:00,38.8,25.7,30.17,East,82,0.0,0.0,59,0.00,,,0.00,LWC V2.00 B2112,2013-03-10 10:04:00,
2013-03-10 06:09:00,38.8,26.1,30.17,East,82,0.0,0.0,60,0.00,,,0.00,LWC V2.00 B2112,2013-03-10 10:09:00,
2013-03-10 06:14:00,38.8,26.1,30.17,East,82,0.0,0.0,60,0.00,,,0.00,LWC V2.00 B2112,2013-03-10 10:14:00,
2013-03-10 06:19:00,38.6,25.5,30.17,East,82,0.0,0.0,59,0.00,,,0.00,LWC V2.00 B2112,2013-03-10 10:19:00,
2013-03-10 06:24:00,38.6,25.9,30.17,East,82,0.0,0.0,60,0.00,,,0.00,LWC V2.00 B2112,2013-03-10 10:24:00,
2013-03-10 06:29:00,38.5,25.8,30.18,East,82,0.0,0.0,60,0.00,,,0.00,LWC V2.00 B2112,2013-03-10 10:29:00,
2013-03-10 06:34:00,38.5,25.4,30.18,East,82,0.0,0.0,59,0.00,,,0.00,LWC V2.00 B2112,2013-03-10 10:34:00,
2013-03-10 06:39:00,38.6,25.5,30.18,East,82,0.0,0.0,59,0.00,,,0.00,LWC V2.00 B2112,2013-03-10 10:39:00,
2013-03-10 06:44:00,38.9,25.4,30.18,East,82,0.0,0.0,58,0.00,,,0.00,LWC V2.00 B2112,2013-03-10 10:44:00,
2013-03-10 06:49:00,39.3,25.4,30.18,East,82,0.0,0.0,57,0.00,,,0.00,LWC V2.00 B2112,2013-03-10 10:49:00,
2013-03-10 06:54:00,39.6,25.2,30.18,East,82,0.0,0.0,56,0.00,,,0.00,LWC V2.00 B2112,2013-03-10 10:54:00,
2013-03-10 06:59:00,39.8,25.4,30.19,East,82,0.0,0.0,56,0.00,,,0.00,LWC V2.00 B2112,2013-03-10 10:59:00,
2013-03-10 07:04:00,39.6,25.6,30.19,East,82,0.0,0.0,57,0.00,,,0.00,LWC V2.00 B2112,2013-03-10 11:04:00,
2013-03-10 07:09:00,39.3,26.2,30.19,East,82,0.0,0.0,59,0.00,,,0.00,LWC V2.00 B2112,2013-03-10 11:09:00,
2013-03-10 07:14:00,38.8,26.5,30.20,East,82,0.0,0.0,61,0.00,,,0.00,LWC V2.00 B2112,2013-03-10 11:14:00,
2013-03-10 07:19:00,38.0,26.5,30.20,East,82,0.0,0.0,63,0.00,,,0.00,LWC V2.00 B2112,2013-03-10 11:19:00,
2013-03-10 07:24:00,37.6,26.2,30.20,East,82,0.0,0.0,63,0.00,,,0.00,LWC V2.00 B2112,2013-03-10 11:24:00,
2013-03-10 07:29:00,37.2,25.4,30.20,East,82,0.0,0.0,62,0.00,,,0.00,LWC V2.00 B2112,2013-03-10 11:29:00,
2013-03-10 07:34:00,36.8,25.8,30.20,East,82,0.0,0.0,64,0.00,,,0.00,LWC V2.00 B2112,2013-03-10 11:34:00,
2013-03-10 07:39:00,36.3,26.0,30.20,East,82,0.0,0.0,66,0.00,,,0.00,LWC V2.00 B2112,2013-03-10 11:39:00,
2013-03-10 07:44:00,36.3,26.0,30.21,East,82,0.0,0.0,66,0.00,,,0.00,LWC V2.00 B2112,2013-03-10 11:44:00,
2013-03-10 07:49:00,36.5,25.9,30.21,East,82,0.0,0.0,65,0.00,,,0.00,LWC V2.00 B2112,2013-03-10 11:49:00,
2013-03-10 07:54:00,36.6,25.2,30.21,East,82,0.0,0.0,63,0.00,,,0.00,LWC V2.00 B2112,2013-03-10 11:54:00,
2013-03-10 07:59:00,36.9,25.1,30.21,East,83,0.0,0.0,62,0.00,,,0.00,LWC V2.00 B2112,2013-03-10 11:59:00,
2013-03-10 08:04:00,37.0,25.6,30.21,East,83,0.0,0.0,63,0.00,,,0.00,LWC V2.00 B2112,2013-03-10 12:04:00,
2013-03-10 08:09:00,37.2,25.8,30.21,East,83,0.0,0.0,63,0.00,,,0.00,LWC V2.00 B2112,2013-03-10 12:09:00,
2013-03-10 08:14:00,37.8,26.7,30.22,East,83,0.0,0.0,64,0.00,,,0.00,LWC V2.00 B2112,2013-03-10 12:14:00,
2013-03-10 08:19:00,38.5,28.1,30.22,East,83,0.0,0.0,66,0.00,,,0.00,LWC V2.00 B2112,2013-03-10 12:19:00,
2013-03-10 08:24:00,39.3,28.5,30.22,East,83,0.0,0.0,65,0.00,,,0.00,LWC V2.00 B2112,2013-03-10 12:24:00,
2013-03-10 08:29:00,39.6,28.4,30.21,East,83,0.0,0.0,64,0.00,,,0.00,LWC V2.00 B2112,2013-03-10 12:29:00,
2013-03-10 08:34:00,39.9,27.6,30.21,East,83,0.0,0.0,61,0.00,,,0.00,LWC V2.00 B2112,2013-03-10 12:34:00,
2013-03-10 08:39:00,40.3,27.1,30.21,East,85,0.0,0.0,59,0.00,,,0.00,LWC V2.00 B2112,2013-03-10 12:39:00,
2013-03-10 08:44:00,40.9,27.3,30.22,East,85,0.0,0.0,58,0.00,,,0.00,LWC V2.00 B2112,2013-03-10 12:44:00,
2013-03-10 08:49:00,41.5,27.0,30.22,East,85,0.0,0.0,56,0.00,,,0.00,LWC V2.00 B2112,2013-03-10 12:49:00,
2013-03-10 08:54:00,41.9,27.8,30.22,East,85,0.0,0.0,57,0.00,,,0.00,LWC V2.00 B2112,2013-03-10 12:54:00,
2013-03-10 08:59:00,42.5,26.6,30.22,East,85,0.0,0.0,53,0.00,,,0.00,LWC V2.00 B2112,2013-03-10 12:59:00,
2013-03-10 09:04:00,43.1,25.7,30.22,East,86,0.0,0.0,50,0.00,,,0.00,LWC V2.00 B2112,2013-03-10 13:04:00,
2013-03-10 09:09:00,43.9,26.0,30.22,East,86,0.0,0.0,49,0.00,,,0.00,LWC V2.00 B2112,2013-03-10 13:09:00,
2013-03-10 09:14:00,44.9,27.4,30.22,East,86,0.0,0.0,50,0.00,,,0.00,LWC V2.00 B2112,2013-03-10 13:14:00,
2013-03-10 09:19:00,45.7,27.1,30.22,East,86,0.0,0.0,48,0.00,,,0.00,LWC V2.00 B2112,2013-03-10 13:19:00,
2013-03-10 09:24:00,46.4,26.2,30.22,East,86,0.0,0.0,45,0.00,,,0.00,LWC V2.00 B2112,2013-03-10 13:24:00,
2013-03-10 09:29:00,47.3,24.8,30.21,East,86,0.0,0.0,41,0.00,,,0.00,LWC V2.00 B2112,2013-03-10 13:29:00,
2013-03-10 09:34:00,48.0,25.4,30.21,East,86,0.0,0.0,41,0.00,,,0.00,LWC V2.00 B2112,2013-03-10 13:34:00,
2013-03-10 09:39:00,48.6,25.4,30.21,SSW,208,0.0,0.0,40,0.00,,,0.00,LWC V2.00 B2112,2013-03-10 13:39:00,
2013-03-10 09:44:00,49.1,25.8,30.21,SW,223,0.0,0.0,40,0.00,,,0.00,LWC V2.00 B2112,2013-03-10 13:44:00,
2013-03-10 09:49:00,49.9,25.9,30.21,SW,214,0.0,0.0,39,0.00,,,0.00,LWC V2.00 B2112,2013-03-10 13:49:00,
2013-03-10 09:54:00,51.1,27.6,30.21,SW,214,0.0,0.0,40,0.00,,,0.00,LWC V2.00 B2112,2013-03-10 13:54:00,
2013-03-10 09:59:00,52.3,24.8,30.21,SW,214,0.0,0.0,34,0.00,,,0.00,LWC V2.00 B2112,2013-03-10 13:59:00,
2013-03-10 10:04:00,52.8,23.8,30.21,SW,214,0.0,0.0,32,0.00,,,0.00,LWC V2.00 B2112,2013-03-10 14:04:00,
2013-03-10 10:09:00,52.9,26.0,30.21,SSW,211,0.0,0.0,35,0.00,,,0.00,LWC V2.00 B2112,2013-03-10 14:09:00,
2013-03-10 10:14:00,53.2,24.1,30.22,South,184,0.0,0.0,32,0.00,,,0.00,LWC V2.00 B2112,2013-03-10 14:14:00,
2013-03-10 10:19:00,54.1,24.9,30.22,SE,141,0.0,0.0,32,0.00,,,0.00,LWC V2.00 B2112,2013-03-10 14:19:00,
2013-03-10 10:24:00,54.8,26.3,30.22,South,174,0.0,0.0,33,0.00,,,0.00,LWC V2.00 B2112,2013-03-10 14:24:00,
2013-03-10 10:29:00,55.1,26.5,30.23,SW,217,0.0,0.0,33,0.00,,,0.00,LWC V2.00 B2112,2013-03-10 14:29:00,
2013-03-10 10:34:00,55.1,24.2,30.23,SSE,160,0.0,0.0,30,0.00,,,0.00,LWC V2.00 B2112,2013-03-10 14:34:00,
2013-03-10 10:39:00,55.3,22.8,30.23,SSW,204,0.0,3.0,28,0.00,,,0.00,LWC V2.00 B2112,2013-03-10 14:39:00,
2013-03-10 10:44:00,55.7,25.5,30.23,SSW,204,0.0,0.0,31,0.00,,,0.00,LWC V2.00 B2112,2013-03-10 14:44:00,
2013-03-10 10:49:00,56.3,26.1,30.23,ESE,104,0.0,0.0,31,0.00,,,0.00,LWC V2.00 B2112,2013-03-10 14:49:00,
2013-03-10 10:54:00,56.3,23.6,30.23,ESE,104,0.0,0.0,28,0.00,,,0.00,LWC V2.00 B2112,2013-03-10 14:54:00,
2013-03-10 10:59:00,56.6,23.9,30.23,SSW,202,0.0,0.0,28,0.00,,,0.00,LWC V2.00 B2112,2013-03-10 14:59:00,
2013-03-10 11:04:00,57.0,23.4,30.23,SW,226,0.0,0.0,27,0.00,,,0.00,LWC V2.00 B2112,2013-03-10 15:04:00,
2013-03-10 11:09:00,57.3,24.5,30.23,SSW,205,0.0,0.0,28,0.00,,,0.00,LWC V2.00 B2112,2013-03-10 15:09:00,
2013-03-10 11:14:00,58.0,24.2,30.23,SW,219,4.0,4.0,27,0.00,,,0.00,LWC V2.00 B2112,2013-03-10 15:14:00,
2013-03-10 11:19:00,57.2,25.2,30.23,SW,224,0.0,0.0,29,0.00,,,0.00,LWC V2.00 B2112,2013-03-10 15:19:00,
2013-03-10 11:24:00,57.3,23.6,30.23,East,98,0.0,0.0,27,0.00,,,0.00,LWC V2.00 B2112,2013-03-10 15:24:00,
2013-03-10 11:29:00,58.3,25.3,30.22,East,98,0.0,0.0,28,0.00,,,0.00,LWC V2.00 B2112,2013-03-10 15:29:00,
2013-03-10 11:34:00,58.4,25.4,30.22,East,86,0.0,0.0,28,0.00,,,0.00,LWC V2.00 B2112,2013-03-10 15:34:00,
2013-03-10 11:39:00,58.9,24.1,30.22,SW,229,0.0,0.0,26,0.00,,,0.00,LWC V2.00 B2112,2013-03-10 15:39:00,
2013-03-10 11:44:00,59.0,24.2,30.22,ESE,107,0.0,5.0,26,0.00,,,0.00,LWC V2.00 B2112,2013-03-10 15:44:00,
2013-03-10 11:49:00,59.5,21.7,30.22,SSW,204,0.0,0.0,23,0.00,,,0.00,LWC V2.00 B2112,2013-03-10 15:49:00,
2013-03-10 11:54:00,59.6,23.7,30.22,SW,230,0.0,0.0,25,0.00,,,0.00,LWC V2.00 B2112,2013-03-10 15:54:00,
2013-03-10 11:59:00,59.8,21.9,30.21,East,93,0.0,0.0,23,0.00,,,0.00,LWC V2.00 B2112,2013-03-10 15:59:00,
2013-03-10 12:04:00,60.2,22.3,30.21,SW,221,0.0,2.0,23,0.00,,,0.00,LWC V2.00 B2112,2013-03-10 16:04:00,
2013-03-10 12:09:00,60.1,24.2,30.21,SW,230,0.0,1.0,25,0.00,,,0.00,LWC V2.00 B2112,2013-03-10 16:09:00,
2013-03-10 12:14:00,60.2,23.3,30.21,East,97,0.0,0.0,24,0.00,,,0.00,LWC V2.00 B2112,2013-03-10 16:14:00,
2013-03-10 12:19:00,60.5,21.5,30.21,SSE,167,0.0,0.0,22,0.00,,,0.00,LWC V2.00 B2112,2013-03-10 16:19:00,
2013-03-10 12:24:00,61.2,27.8,30.21,ESE,118,0.0,0.0,28,0.00,,,0.00,LWC V2.00 B2112,2013-03-10 16:24:00,
2013-03-10 12:29:00,61.5,26.3,30.20,WSW,251,0.0,4.0,26,0.00,,,0.00,LWC V2.00 B2112,2013-03-10 16:29:00,
2013-03-10 12:34:00,61.5,20.1,30.20,East,91,0.0,0.0,20,0.00,,,0.00,LWC V2.00 B2112,2013-03-10 16:34:00,
2013-03-10 12:39:00,61.8,20.3,30.20,SSE,166,0.0,0.0,20,0.00,,,0.00,LWC V2.00 B2112,2013-03-10 16:39:00,
2013-03-10 12:44:00,61.8,20.3,30.20,ESE,112,0.0,1.0,20,0.00,,,0.00,LWC V2.00 B2112,2013-03-10 16:44:00,
2013-03-10 12:49:00,61.3,19.9,30.20,ESE,110,0.0,0.0,20,0.00,,,0.00,LWC V2.00 B2112,2013-03-10 16:49:00,
2013-03-10 12:54:00,61.8,29.2,30.20,ESE,109,0.0,0.0,29,0.00,,,0.00,LWC V2.00 B2112,2013-03-10 16:54:00,
2013-03-10 12:59:00,61.6,23.4,30.19,East,89,0.0,0.0,23,0.00,,,0.00,LWC V2.00 B2112,2013-03-10 16:59:00,
2013-03-10 13:04:00,61.6,21.3,30.19,SSW,195,0.0,0.0,21,0.00,,,0.00,LWC V2.00 B2112,2013-03-10 17:04:00,
2013-03-10 13:09:00,62.0,24.8,30.19,SW,222,0.0,4.0,24,0.00,,,0.00,LWC V2.00 B2112,2013-03-10 17:09:00,
2013-03-10 13:14:00,62.3,23.0,30.19,East,100,0.0,0.0,22,0.00,,,0.00,LWC V2.00 B2112,2013-03-10 17:14:00,
2013-03-10 13:19:00,62.9,25.6,30.19,ENE,68,0.0,0.0,24,0.00,,,0.00,LWC V2.00 B2112,2013-03-10 17:19:00,
2013-03-10 13:24:00,63.9,28.3,30.19,NNE,20,0.0,0.0,26,0.00,,,0.00,LWC V2.00 B2112,2013-03-10 17:24:00,
2013-03-10 13:29:00,64.0,28.4,30.18,SSE,168,0.0,3.0,26,0.00,,,0.00,LWC V2.00 B2112,2013-03-10 17:29:00,
2013-03-10 13:34:00,63.7,21.9,30.18,SW,215,0.0,0.0,20,0.00,,,0.00,LWC V2.00 B2112,2013-03-10 17:34:00,
2013-03-10 13:39:00,62.9,22.4,30.18,ENE,62,0.0,0.0,21,0.00,,,0.00,LWC V2.00 B2112,2013-03-10 17:39:00,
2013-03-10 13:44:00,63.1,23.6,30.17,East,84,0.0,5.0,22,0.00,,,0.00,LWC V2.00 B2112,2013-03-10 17:44:00,
2013-03-10 13:49:00,63.4,22.8,30.17,East,92,0.0,0.0,21,0.00,,,0.00,LWC V2.00 B2112,2013-03-10 17:49:00,
2013-03-10 13:54:00,64.3,26.7,30.17,SW,219,0.0,0.0,24,0.00,,,0.00,LWC V2.00 B2112,2013-03-10 17:54:00,
2013-03-10 13:59:00,64.8,21.6,30.16,East,90,0.0,3.0,19,0.00,,,0.00,LWC V2.00 B2112,2013-03-10 17:59:00,
2013-03-10 14:09:00,65.0,26.3,30.16,SSW,193,0.0,0.0,23,0.00,,,0.00,LWC V2.00 B2112,2013-03-10 18:09:00,
2013-03-10 14:14:00,64.8,20.3,30.16,SSW,195,0.0,0.0,18,0.00,,,0.00,LWC V2.00 B2112,2013-03-10 18:14:00,
2013-03-10 14:19:00,63.9,22.0,30.16,ESE,105,0.0,0.0,20,0.00,,,0.00,LWC V2.00 B2112,2013-03-10 18:19:00,
2013-03-10 14:24:00,63.9,23.2,30.16,ESE,105,0.0,0.0,21,0.00,,,0.00,LWC V2.00 B2112,2013-03-10 18:24:00,
2013-03-10 14:29:00,64.5,23.7,30.16,South,172,0.0,0.0,21,0.00,,,0.00,LWC V2.00 B2112,2013-03-10 18:29:00,
2013-03-10 14:34:00,64.8,22.8,30.16,SW,214,1.0,1.0,20,0.00,,,0.00,LWC V2.00 B2112,2013-03-10 18:34:00,
2013-03-10 14:39:00,65.0,25.2,30.16,South,188,0.0,0.0,22,0.00,,,0.00,LWC V2.00 B2112,2013-03-10 18:39:00,
2013-03-10 14:44:00,65.0,24.1,30.15,East,85,0.0,0.0,21,0.00,,,0.00,LWC V2.00 B2112,2013-03-10 18:44:00,
2013-03-10 14:49:00,64.8,24.0,30.15,East,89,0.0,0.0,21,0.00,,,0.00,LWC V2.00 B2112,2013-03-10 18:49:00,
2013-03-10 14:54:00,64.8,24.0,30.15,East,93,0.0,3.0,21,0.00,,,0.00,LWC V2.00 B2112,2013-03-10 18:54:00,
2013-03-10 14:59:00,65.0,25.2,30.15,NE,42,0.0,0.0,22,0.00,,,0.00,LWC V2.00 B2112,2013-03-10 18:59:00,
2013-03-10 15:04:00,65.2,23.1,30.15,SW,224,0.0,0.0,20,0.00,,,0.00,LWC V2.00 B2112,2013-03-10 19:04:00,
2013-03-10 15:09:00,65.0,24.1,30.15,ENE,68,0.0,0.0,21,0.00,,,0.00,LWC V2.00 B2112,2013-03-10 19:09:00,
2013-03-10 15:14:00,65.2,20.6,30.15,WSW,250,0.0,0.0,18,0.00,,,0.00,LWC V2.00 B2112,2013-03-10 19:14:00,
2013-03-10 15:19:00,66.0,28.2,30.15,South,177,0.0,0.0,24,0.00,,,0.00,LWC V2.00 B2112,2013-03-10 19:19:00,
2013-03-10 15:24:00,66.6,25.4,30.15,ESE,107,0.0,0.0,21,0.00,,,0.00,LWC V2.00 B2112,2013-03-10 19:24:00,
2013-03-10 15:29:00,66.6,20.4,30.14,WSW,245,0.0,0.0,17,0.00,,,0.00,LWC V2.00 B2112,2013-03-10 19:29:00,
2013-03-10 15:34:00,66.6,20.4,30.14,SW,227,0.0,0.0,17,0.00,,,0.00,LWC V2.00 B2112,2013-03-10 19:34:00,
2013-03-10 15:39:00,66.6,23.1,30.14,SE,143,0.0,0.0,19,0.00,,,0.00,LWC V2.00 B2112,2013-03-10 19:39:00,
2013-03-10 15:44:00,66.4,22.9,30.14,SSE,167,0.0,3.0,19,0.00,,,0.00,LWC V2.00 B2112,2013-03-10 19:44:00,
2013-03-10 15:49:00,66.6,21.8,30.14,SW,220,0.0,1.0,18,0.00,,,0.00,LWC V2.00 B2112,2013-03-10 19:49:00,
2013-03-10 15:54:00,66.4,22.9,30.14,South,169,0.0,0.0,19,0.00,,,0.00,LWC V2.00 B2112,2013-03-10 19:54:00,
2013-03-10 15:59:00,66.4,21.6,30.14,WSW,247,0.0,0.0,18,0.00,,,0.00,LWC V2.00 B2112,2013-03-10 19:59:00,
2013-03-10 16:04:00,66.8,25.6,30.14,WSW,243,0.0,0.0,21,0.00,,,0.00,LWC V2.00 B2112,2013-03-10 20:04:00,
2013-03-10 16:09:00,66.8,24.4,30.14,SSE,148,0.0,11.0,20,0.00,,,0.00,LWC V2.00 B2112,2013-03-10 20:09:00,
2013-03-10 16:19:00,65.8,22.4,30.14,East,90,0.0,0.0,19,0.00,,,0.00,LWC V2.00 B2112,2013-03-10 20:19:00,
2013-03-10 16:24:00,65.8,19.8,30.14,East,90,0.0,0.0,17,0.00,,,0.00,LWC V2.00 B2112,2013-03-10 20:24:00,
2013-03-10 16:29:00,66.0,22.6,30.13,SSW,199,0.0,4.0,19,0.00,,,0.00,LWC V2.00 B2112,2013-03-10 20:29:00,
2013-03-10 16:34:00,66.4,21.6,30.13,SSE,165,0.0,3.0,18,0.00,,,0.00,LWC V2.00 B2112,2013-03-10 20:34:00,
2013-03-10 16:39:00,66.6,20.4,30.13,SSW,197,0.0,0.0,17,0.00,,,0.00,LWC V2.00 B2112,2013-03-10 20:39:00,
2013-03-10 16:44:00,66.8,19.2,30.13,WSW,252,0.0,0.0,16,0.00,,,0.00,LWC V2.00 B2112,2013-03-10 20:44:00,
2013-03-10 16:49:00,67.1,22.2,30.13,North,352,0.0,0.0,18,0.00,,,0.00,LWC V2.00 B2112,2013-03-10 20:49:00,
2013-03-10 16:54:00,67.1,17.9,30.13,SW,217,0.0,5.0,15,0.00,,,0.00,LWC V2.00 B2112,2013-03-10 20:54:00,
2013-03-10 16:59:00,66.8,23.2,30.13,SSW,207,0.0,3.0,19,0.00,,,0.00,LWC V2.00 B2112,2013-03-10 20:59:00,
2013-03-10 17:04:00,66.6,21.8,30.13,ESE,115,0.0,0.0,18,0.00,,,0.00,LWC V2.00 B2112,2013-03-10 21:04:00,
2013-03-10 17:09:00,66.1,20.0,30.13,ESE,113,0.0,0.0,17,0.00,,,0.00,LWC V2.00 B2112,2013-03-10 21:09:00,
2013-03-10 17:14:00,65.8,19.8,30.13,SE,136,0.0,0.0,17,0.00,,,0.00,LWC V2.00 B2112,2013-03-10 21:14:00,
2013-03-10 17:19:00,65.6,19.6,30.13,SE,132,0.0,0.0,17,0.00,,,0.00,LWC V2.00 B2112,2013-03-10 21:19:00,
2013-03-10 17:24:00,65.5,20.9,30.13,ESE,120,0.0,0.0,18,0.00,,,0.00,LWC V2.00 B2112,2013-03-10 21:24:00,
2013-03-10 17:29:00,64.8,19.0,30.13,East,83,0.0,0.0,17,0.00,,,0.00,LWC V2.00 B2112,2013-03-10 21:29:00,
2013-03-10 17:34:00,63.9,19.6,30.13,East,94,0.0,0.0,18,0.00,,,0.00,LWC V2.00 B2112,2013-03-10 21:34:00,
2013-03-10 17:39:00,63.4,20.4,30.13,East,94,0.0,0.0,19,0.00,,,0.00,LWC V2.00 B2112,2013-03-10 21:39:00,
2013-03-10 17:44:00,63.4,22.8,30.13,East,94,0.0,0.0,21,0.00,,,0.00,LWC V2.00 B2112,2013-03-10 21:44:00,
2013-03-10 17:49:00,63.5,16.5,30.13,SW,214,0.0,4.0,16,0.00,,,0.00,LWC V2.00 B2112,2013-03-10 21:49:00,
2013-03-10 17:54:00,63.7,19.4,30.13,East,82,0.0,0.0,18,0.00,,,0.00,LWC V2.00 B2112,2013-03-10 21:54:00,
2013-03-10 17:59:00,63.5,21.7,30.13,South,170,0.0,0.0,20,0.00,,,0.00,LWC V2.00 B2112,2013-03-10 21:59:00,
2013-03-10 18:04:00,63.4,19.2,30.13,ESE,113,0.0,0.0,18,0.00,,,0.00,LWC V2.00 B2112,2013-03-10 22:04:00,
2013-03-10 18:09:00,62.7,19.9,30.13,ESE,113,0.0,0.0,19,0.00,,,0.00,LWC V2.00 B2112,2013-03-10 22:09:00,
2013-03-10 18:14:00,62.3,19.5,30.13,SSW,202,0.0,0.0,19,0.00,,,0.00,LWC V2.00 B2112,2013-03-10 22:14:00,
2013-03-10 18:19:00,61.8,22.6,30.13,East,93,0.0,0.0,22,0.00,,,0.00,LWC V2.00 B2112,2013-03-10 22:19:00,
2013-03-10 18:24:00,61.5,21.2,30.13,East,93,0.0,0.0,21,0.00,,,0.00,LWC V2.00 B2112,2013-03-10 22:24:00,
2013-03-10 18:29:00,61.3,22.1,30.14,East,93,0.0,0.0,22,0.00,,,0.00,LWC V2.00 B2112,2013-03-10 22:29:00,
2013-03-10 18:34:00,61.2,22.1,30.14,East,93,0.0,0.0,22,0.00,,,0.00,LWC V2.00 B2112,2013-03-10 22:34:00,
2013-03-10 18:39:00,60.9,20.7,30.14,East,93,0.0,0.0,21,0.00,,,0.00,LWC V2.00 B2112,2013-03-10 22:39:00,
2013-03-10 18:44:00,60.7,20.5,30.14,East,93,0.0,0.0,21,0.00,,,0.00,LWC V2.00 B2112,2013-03-10 22:44:00,
2013-03-10 18:49:00,60.2,22.3,30.14,East,93,0.0,0.0,23,0.00,,,0.00,LWC V2.00 B2112,2013-03-10 22:49:00,
2013-03-10 18:54:00,59.9,22.0,30.14,East,93,0.0,0.0,23,0.00,,,0.00,LWC V2.00 B2112,2013-03-10 22:54:00,
2013-03-10 18:59:00,59.5,21.7,30.15,East,93,0.0,0.0,23,0.00,,,0.00,LWC V2.00 B2112,2013-03-10 22:59:00,
2013-03-10 19:04:00,59.0,22.3,30.15,East,93,0.0,0.0,24,0.00,,,0.00,LWC V2.00 B2112,2013-03-10 23:04:00,
2013-03-10 19:09:00,58.6,21.9,30.15,East,93,0.0,0.0,24,0.00,,,0.00,LWC V2.00 B2112,2013-03-10 23:09:00,
2013-03-10 19:14:00,58.0,21.4,30.15,East,93,0.0,0.0,24,0.00,,,0.00,LWC V2.00 B2112,2013-03-10 23:14:00,
2013-03-10 19:19:00,57.2,21.7,30.15,East,93,0.0,0.0,25,0.00,,,0.00,LWC V2.00 B2112,2013-03-10 23:19:00,
2013-03-10 19:24:00,56.7,21.3,30.15,East,93,0.0,0.0,25,0.00,,,0.00,LWC V2.00 B2112,2013-03-10 23:24:00,
2013-03-10 19:29:00,56.3,20.9,30.15,East,93,0.0,0.0,25,0.00,,,0.00,LWC V2.00 B2112,2013-03-10 23:29:00,
2013-03-10 19:34:00,55.7,21.4,30.15,East,93,0.0,0.0,26,0.00,,,0.00,LWC V2.00 B2112,2013-03-10 23:34:00,
2013-03-10 19:39:00,55.3,21.0,30.15,East,93,0.0,0.0,26,0.00,,,0.00,LWC V2.00 B2112,2013-03-10 23:39:00,
2013-03-10 19:44:00,54.8,21.5,30.15,East,93,0.0,0.0,27,0.00,,,0.00,LWC V2.00 B2112,2013-03-10 23:44:00,
2013-03-10 19:49:00,54.2,21.0,30.15,East,93,0.0,0.0,27,0.00,,,0.00,LWC V2.00 B2112,2013-03-10 23:49:00,
2013-03-10 19:54:00,53.8,20.6,30.15,East,93,0.0,0.0,27,0.00,,,0.00,LWC V2.00 B2112,2013-03-10 23:54:00,
2013-03-10 19:59:00,53.3,20.2,30.17,East,93,0.0,0.0,27,0.00,,,0.00,LWC V2.00 B2112,2013-03-10 23:59:00,
2013-03-10 20:04:00,52.9,21.5,30.17,East,93,0.0,0.0,29,0.00,,,0.00,LWC V2.00 B2112,2013-03-11 00:04:00,
2013-03-10 20:09:00,52.8,23.8,30.17,East,93,0.0,0.0,32,0.00,,,0.00,LWC V2.00 B2112,2013-03-11 00:09:00,
2013-03-10 20:14:00,52.5,22.8,30.17,East,93,0.0,0.0,31,0.00,,,0.00,LWC V2.00 B2112,2013-03-11 00:14:00,
2013-03-10 20:19:00,52.0,23.1,30.17,East,93,0.0,0.0,32,0.00,,,0.00,LWC V2.00 B2112,2013-03-11 00:19:00,
2013-03-10 20:24:00,51.6,23.4,30.17,East,93,0.0,0.0,33,0.00,,,0.00,LWC V2.00 B2112,2013-03-11 00:24:00,
2013-03-10 20:29:00,51.3,23.2,30.15,East,93,0.0,0.0,33,0.00,,,0.00,LWC V2.00 B2112,2013-03-11 00:29:00,
2013-03-10 20:34:00,51.1,23.0,30.15,East,93,0.0,0.0,33,0.00,,,0.00,LWC V2.00 B2112,2013-03-11 00:34:00,
2013-03-10 20:39:00,51.0,23.6,30.15,East,93,0.0,0.0,34,0.00,,,0.00,LWC V2.00 B2112,2013-03-11 00:39:00,
2013-03-10 20:44:00,51.1,24.4,30.15,East,93,0.0,0.0,35,0.00,,,0.00,LWC V2.00 B2112,2013-03-11 00:44:00,
2013-03-10 20:49:00,51.1,23.7,30.15,East,93,0.0,0.0,34,0.00,,,0.00,LWC V2.00 B2112,2013-03-11 00:49:00,
2013-03-10 20:54:00,51.1,24.4,30.15,East,93,0.0,0.0,35,0.00,,,0.00,LWC V2.00 B2112,2013-03-11 00:54:00,
2013-03-10 20:59:00,51.0,22.2,30.15,East,93,0.0,0.0,32,0.00,,,0.00,LWC V2.00 B2112,2013-03-11 00:59:00,
2013-03-10 21:04:00,50.8,22.0,30.15,East,93,0.0,0.0,32,0.00,,,0.00,LWC V2.00 B2112,2013-03-11 01:04:00,
2013-03-10 21:09:00,50.5,21.8,30.15,East,93,0.0,0.0,32,0.00,,,0.00,LWC V2.00 B2112,2013-03-11 01:09:00,
2013-03-10 21:14:00,50.8,22.0,30.15,East,93,0.0,0.0,32,0.00,,,0.00,LWC V2.00 B2112,2013-03-11 01:14:00,
2013-03-10 21:19:00,50.8,22.7,30.15,East,93,0.0,0.0,33,0.00,,,0.00,LWC V2.00 B2112,2013-03-11 01:19:00,
2013-03-10 21:24:00,50.7,21.9,30.15,East,93,0.0,0.0,32,0.00,,,0.00,LWC V2.00 B2112,2013-03-11 01:24:00,
2013-03-10 21:29:00,50.5,23.2,30.15,East,93,0.0,0.0,34,0.00,,,0.00,LWC V2.00 B2112,2013-03-11 01:29:00,
2013-03-10 21:34:00,50.1,22.8,30.15,East,93,0.0,0.0,34,0.00,,,0.00,LWC V2.00 B2112,2013-03-11 01:34:00,
2013-03-10 21:39:00,49.8,23.3,30.15,East,93,0.0,0.0,35,0.00,,,0.00,LWC V2.00 B2112,2013-03-11 01:39:00,
2013-03-10 21:44:00,49.5,23.0,30.15,East,93,0.0,0.0,35,0.00,,,0.00,LWC V2.00 B2112,2013-03-11 01:44:00,
2013-03-10 21:49:00,49.2,22.7,30.15,East,93,0.0,0.0,35,0.00,,,0.00,LWC V2.00 B2112,2013-03-11 01:49:00,
2013-03-10 21:54:00,49.1,24.0,30.15,East,93,0.0,0.0,37,0.00,,,0.00,LWC V2.00 B2112,2013-03-11 01:54:00,
2013-03-10 21:59:00,48.9,22.5,30.16,East,93,0.0,0.0,35,0.00,,,0.00,LWC V2.00 B2112,2013-03-11 01:59:00,
2013-03-10 22:04:00,48.9,23.8,30.16,East,93,0.0,0.0,37,0.00,,,0.00,LWC V2.00 B2112,2013-03-11 02:04:00,
2013-03-10 22:09:00,48.9,23.1,30.16,East,93,0.0,0.0,36,0.00,,,0.00,LWC V2.00 B2112,2013-03-11 02:09:00,
2013-03-10 22:14:00,48.9,23.8,30.16,East,93,0.0,0.0,37,0.00,,,0.00,LWC V2.00 B2112,2013-03-11 02:14:00,
2013-03-10 22:19:00,48.9,23.8,30.16,East,93,0.0,0.0,37,0.00,,,0.00,LWC V2.00 B2112,2013-03-11 02:19:00,
2013-03-10 22:24:00,49.1,24.6,30.16,East,93,0.0,0.0,38,0.00,,,0.00,LWC V2.00 B2112,2013-03-11 02:24:00,
2013-03-10 22:34:00,49.9,24.0,30.16,East,93,0.0,0.0,36,0.00,,,0.00,LWC V2.00 B2112,2013-03-11 02:34:00,
2013-03-10 22:39:00,50.4,24.5,30.16,East,93,0.0,0.0,36,0.00,,,0.00,LWC V2.00 B2112,2013-03-11 02:39:00,
2013-03-10 22:44:00,50.5,25.2,30.15,East,93,0.0,0.0,37,0.00,,,0.00,LWC V2.00 B2112,2013-03-11 02:44:00,
2013-03-10 22:49:00,50.5,25.2,30.15,East,93,0.0,0.0,37,0.00,,,0.00,LWC V2.00 B2112,2013-03-11 02:49:00,
2013-03-10 22:54:00,50.5,26.5,30.15,East,93,0.0,0.0,39,0.00,,,0.00,LWC V2.00 B2112,2013-03-11 02:54:00,
2013-03-10 22:59:00,50.2,26.8,30.16,East,93,0.0,0.0,40,0.00,,,0.00,LWC V2.00 B2112,2013-03-11 02:59:00,
2013-03-10 23:04:00,49.9,26.5,30.16,East,93,0.0,0.0,40,0.00,,,0.00,LWC V2.00 B2112,2013-03-11 03:04:00,
2013-03-10 23:14:00,49.4,26.1,30.16,East,93,0.0,0.0,40,0.00,,,0.00,LWC V2.00 B2112,2013-03-11 03:14:00,
2013-03-10 23:19:00,49.1,26.4,30.16,East,93,0.0,0.0,41,0.00,,,0.00,LWC V2.00 B2112,2013-03-11 03:19:00,
2013-03-10 23:24:00,48.9,26.2,30.16,East,93,0.0,0.0,41,0.00,,,0.00,LWC V2.00 B2112,2013-03-11 03:24:00,
2013-03-10 23:29:00,48.6,26.0,30.16,East,93,0.0,0.0,41,0.00,,,0.00,LWC V2.00 B2112,2013-03-11 03:29:00,
2013-03-10 23:34:00,48.3,26.3,30.16,East,93,0.0,0.0,42,0.00,,,0.00,LWC V2.00 B2112,2013-03-11 03:34:00,
2013-03-10 23:39:00,48.0,26.0,30.16,East,93,0.0,0.0,42,0.00,,,0.00,LWC V2.00 B2112,2013-03-11 03:39:00,
2013-03-10 23:44:00,48.0,26.0,30.16,East,93,0.0,0.0,42,0.00,,,0.00,LWC V2.00 B2112,2013-03-11 03:44:00,
2013-03-10 23:49:00,48.3,25.7,30.16,East,93,0.0,0.0,41,0.00,,,0.00,LWC V2.00 B2112,2013-03-11 03:49:00,
2013-03-10 23:54:00,48.3,26.3,30.16,East,93,0.0,0.0,42,0.00,,,0.00,LWC V2.00 B2112,2013-03-11 03:54:00,
2013-03-10 23:59:00,48.2,26.8,30.16,East,93,0.0,0.0,43,0.00,,,0.00,LWC V2.00 B2112,2013-03-11 03:59:00,